User: anonymous   Login
Location: Seminole
(32.7190°N, 102.6440°W)
Time: 15:37:23
(UTC-05:00)
Language:

Meteor 2-10 - Orbit

View from above orbital plane
View from above orbital plane
View from above satellite
View from above satellite

Ground track
Ground track

The orbit data is extracted from the following two-line orbital elements,

1 14452U 83109A   14295.45993948  .00000245  00000-0  93416-4 0  6321
2 14452 081.1619 334.0154 0089709 311.0975 048.2481 14.26265862610920
Epoch (UTC): 22 October 2014 11:02:18
Eccentricity: 0.0089709
inclination: 81.1619°
perigee height: 740 km
apogee height: 868 km
right ascension of ascending node: 334.0154°
argument of perigee: 311.0975°
revolutions per day: 14.26265862
mean anomaly at epoch: 48.2481°
orbit number at epoch: 61092

The dashed part of the orbit path shows where the satellite is in the earth's shadow,  

DLR